Regional Weather Roundup
Issued by NWS Cleveland, OH

Home | Current Version | Previous Version | Graphics & Text | Print | Product List | Glossary On
Versions: 1 2 3 4 5 6 7 8 9 10 11 12 13 14 15 16 17 18 19 20 21 22 23 24 25 26 27 28 29 30 31 32 33 34 35 36 37 38 39 40 41 42 43 44 45 46 47 48 49 50
000
ASUS41 KCLE 250410
RWRCLE
OHIO REGIONAL WEATHER ROUNDUP
NATIONAL WEATHER SERVICE WILMINGTON, OH
1200 AM EDT SAT OCT 25 2014

NOTE: "FAIR" INDICATES FEW OR NO CLOUDS BELOW 12,000 FEET WITH NO
SIGNIFICANT WEATHER AND/OR OBSTRUCTIONS TO VISIBILITY.

OHZ001>008-015>018-024>027-034-035-043-044-250500-
   NORTHWEST OHIO

CITY           SKY/WX    TMP DP  RH WIND       PRES   REMARKS
DEFIANCE       CLEAR     51  47  86 SW5       29.98F
FINDLAY        CLOUDY    48  44  86 S6        29.99F
TOLEDO EXPRESS PTCLDY    48  45  89 CALM      29.97F FOG
TOLEDO METCALF MOCLDY    49  44  83 SW3       29.99S
LIMA           PTCLDY    53  45  74 SW6       30.00F
$$

OHZ009>014-019>023-028>033-038-089-250500-
   NORTHEAST OHIO

CITY           SKY/WX    TMP DP  RH WIND       PRES   REMARKS
CLE-HOPKINS    MOCLDY    51  45  79 SW3       30.01F
CLE-LAKEFRONT  CLOUDY    56  44  64 SW9       29.98F
CUY CO. ARPT   NOT AVBL
LORAIN-ELYRIA  MOCLDY    47  44  90 SW7       30.00F
ASHTABULA      MOCLDY    50  43  77 CALM      29.99F
AKRON-CANTON   PTCLDY    50  39  66 SW5       30.00S
WOOSTER        PTCLDY    43  39  86 CALM      30.01F
MANSFIELD      CLEAR     49  38  65 SW5       30.01S
YOUNGSTOWN     CLOUDY    48  42  80 CALM      29.99S
$$

OHZ042-051>053-060>062-070>072-077>081-250500-
  SOUTHWEST OHIO

CITY           SKY/WX    TMP DP  RH WIND       PRES   REMARKS
CINC-COVINGTON PTCLDY    48  41  76 CALM      30.05R
CINC-LUNKEN    CLEAR     44  42  93 CALM      30.07R
HAMILTON       MOCLDY    44  42  93 CALM      30.06R
DAYTON         PTCLDY    51  42  71 SW7       30.04S
WRIGHT-PAT AFB PTCLDY    49  42  77 SE2       30.03S
DAYTON GENERAL PTCLDY    53  40  61 CALM      30.04R
WILMINGTON     CLEAR     49  37  63 SW6       30.04S
$$

OHZ036-037-039>041-045>050-054>059-063>069-073>076-082>088-250500-
  CENTRAL AND SOUTHEAST OHIO

CITY           SKY/WX    TMP DP  RH WIND       PRES   REMARKS
COLUMBUS       PTCLDY    46  39  76 CALM      30.03R
OSU AIRPORT    CLEAR     46  38  73 SW5       30.03R
BOLTON FIELD   CLEAR     44  39  80 W5        30.04R
RICKENBACK AFB CLEAR     46  38  76 S3        30.03S
NEWARK         CLEAR     39  37  92 CALM      30.03R
MARION         PTCLDY    49  39  68 SW6       30.01S
LANCASTER      CLEAR     40  38  93 CALM      30.04R
ZANESVILLE     CLEAR     41  38  89 CALM      30.02F
NEW PHILLY     CLEAR     46  42  86 E3        30.01F
$$



USA.gov is the U.S. government's official web portal to all federal, state and local government web resources and services.